EW2263 Weather Reports


Display with metric or nautical units.
time (UTC)temp
F
wind
direction
speed
MPH
gust
MPH
rain 1hr
in
rain 24hr
in
rain mn
in
humidity
%
barometer
mb
20260509001600 64 196 0.0 0.0 0.00 0.00 0.00 70 1010.4
20260509000106 65 202 1.0 0.0 0.00 0.00 0.00 69 1010.1
20260508234559 66 149 0.0 0.0 0.00 0.00 0.00 67 1010.0
20260508233107 67 231 1.0 0.0 0.00 0.00 0.00 66 1010.1
20260508231635 68 134 1.0 0.0 0.00 0.00 0.00 62 1010.2
20260508230018 68 108 1.0 0.0 0.00 0.00 0.00 64 1010.0
20260508224524 68 83 1.0 0.0 0.00 0.00 0.00 63 1010.0
20260508223033 69 13 1.0 0.0 0.00 0.00 0.00 62 1010.1
20260508221516 69 211 2.0 0.0 0.00 0.00 0.00 59 1010.1
20260508220019 70 146 1.0 0.0 0.00 0.00 0.00 58 1009.9
20260508214515 70 170 1.0 0.0 0.00 0.00 0.00 57 1009.8
20260508213015 71 349 1.0 0.0 0.00 0.00 0.00 57 1009.9
20260508211515 71 143 1.0 0.0 0.00 0.00 0.00 56 1010.1
20260508210014 71 230 2.0 0.0 0.00 0.00 0.00 57 1009.9
20260508204515 71 136 2.0 0.0 0.00 0.00 0.00 56 1010.0
20260508203015 71 293 1.0 0.0 0.00 0.00 0.00 54 1009.9
20260508201516 72 347 1.0 0.0 0.00 0.00 0.00 56 1010.2
20260508200013 72 156 2.0 0.0 0.00 0.00 0.00 53 1010.4
20260508194512 73 186 2.0 0.0 0.00 0.00 0.00 50 1010.7
20260508193012 74 255 2.0 0.0 0.00 0.00 0.00 52 1010.9
20260508191528 74 121 2.0 0.0 0.00 0.00 0.00 49 1011.1
20260508190008 73 273 2.0 0.0 0.00 0.00 0.00 54 1011.2
20260508184507 72 212 2.0 0.0 0.00 0.00 0.00 53 1011.5
20260508183007 71 92 1.0 0.0 0.00 0.00 0.00 57 1011.8
20260508181506 73 160 2.0 0.0 0.00 0.00 0.00 51 1011.9
20260508180003 72 103 2.0 0.0 0.00 0.00 0.00 56 1012.2
20260508174501 71 182 2.0 0.0 0.00 0.00 0.00 52 1012.3
20260508173001 72 102 2.0 0.0 0.00 0.00 0.00 52 1012.5
20260508171559 71 350 2.0 0.0 0.00 0.00 0.00 55 1012.5
20260508170058 71 132 2.0 0.0 0.00 0.00 0.00 53 1013.0
20260508164604 70 162 1.0 0.0 0.00 0.00 0.00 53 1013.1
20260508163053 68 96 1.0 0.0 0.00 0.00 0.00 59 1013.4
20260508161553 68 36 1.0 0.0 0.00 0.00 0.00 58 1013.5
20260508160052 69 260 2.0 0.0 0.00 0.00 0.00 56 1013.6
20260508154550 68 5 1.0 0.0 0.00 0.00 0.00 57 1013.9
20260508153049 68 109 2.0 0.0 0.00 0.00 0.00 59 1014.1
20260508151547 67 134 2.0 0.0 0.00 0.00 0.00 57 1014.0
20260508150046 67 21 2.0 0.0 0.00 0.00 0.00 61 1014.0
20260508144546 67 235 1.0 0.0 0.00 0.00 0.00 61 1014.0
20260508143043 66 70 1.0 0.0 0.00 0.00 0.00 65 1014.0
20260508141540 65 115 2.0 0.0 0.00 0.00 0.00 66 1014.1
20260508140040 64 51 1.0 0.0 0.00 0.00 0.00 69 1014.4
20260508134535 63 63 1.0 0.0 0.00 0.00 0.00 71 1014.5
20260508133030 62 308 1.0 0.0 0.00 0.00 0.00 72 1014.5
20260508131525 60 329 1.0 0.0 0.00 0.00 0.00 77 1014.3
20260508130022 58 19 0.0 0.0 0.00 0.00 0.00 81 1014.1
20260508124516 55 327 0.0 0.0 0.00 0.00 0.00 89 1013.9
20260508123013 54 193 0.0 0.0 0.00 0.00 0.00 97 1013.9
20260508121512 52 193 0.0 0.0 0.00 0.00 0.00 97 1013.7
20260508120026 51 193 0.0 0.0 0.00 0.00 0.00 97 1013.5
20260508114510 49 193 0.0 0.0 0.00 0.00 0.00 96 1013.4
20260508113012 48 193 0.0 0.0 0.00 0.00 0.00 95 1013.1
20260508111506 47 193 0.0 0.0 0.00 0.00 0.00 94 1012.7
20260508104536 47 193 0.0 0.0 0.00 0.00 0.00 93 1012.2
20260508103035 47 193 0.0 0.0 0.00 0.00 0.00 92 1012.1
20260508101530 47 193 0.0 0.0 0.00 0.00 0.00 92 1011.8
20260508100028 47 193 0.0 0.0 0.00 0.00 0.00 92 1011.5
20260508094526 47 193 0.0 0.0 0.00 0.00 0.00 92 1011.2
20260508093024 48 193 0.0 0.0 0.00 0.00 0.00 92 1011.1
20260508091524 48 193 0.0 0.0 0.00 0.00 0.00 92 1011.2
20260508090022 48 193 0.0 0.0 0.00 0.00 0.00 92 1010.9
20260508084521 48 193 0.0 0.0 0.00 0.00 0.00 92 1011.1
20260508083021 48 193 0.0 0.0 0.00 0.00 0.00 91 1010.9
20260508081519 49 193 0.0 0.0 0.00 0.00 0.00 92 1010.9
20260508080016 49 193 0.0 0.0 0.00 0.00 0.00 92 1010.8
20260508074517 49 193 0.0 0.0 0.00 0.00 0.00 92 1010.9
20260508073014 49 22 0.0 0.0 0.00 0.00 0.00 92 1010.6
20260508071512 49 22 0.0 0.0 0.00 0.00 0.00 91 1010.6
20260508070011 49 22 0.0 0.0 0.00 0.00 0.00 91 1010.5
20260508064509 49 22 0.0 0.0 0.00 0.00 0.00 91 1010.3
20260508063007 50 22 0.0 0.0 0.00 0.00 0.00 90 1010.4
20260508061506 50 21 0.0 0.0 0.00 0.00 0.00 91 1010.3
20260508060006 50 22 0.0 0.0 0.00 0.00 0.00 91 1010.3
20260508054507 51 22 0.0 0.0 0.00 0.00 0.00 90 1010.3
20260508053107 51 21 0.0 0.0 0.00 0.00 0.00 90 1010.3
20260508051606 51 22 0.0 0.0 0.00 0.00 0.00 89 1010.2
20260508050055 52 22 0.0 0.0 0.00 0.00 0.00 88 1010.1
20260508044552 52 22 0.0 0.0 0.00 0.00 0.00 88 1009.9
20260508043053 53 21 0.0 0.0 0.00 0.00 0.00 87 1010.0
20260508041547 54 22 0.0 0.0 0.00 0.00 0.00 86 1009.7
20260508040044 54 22 0.0 0.0 0.00 0.00 0.00 85 1009.6
20260508034548 55 22 0.0 0.0 0.00 0.00 1.26 84 1009.9
20260508033040 55 22 0.0 0.0 0.00 0.00 1.26 82 1009.7
20260508031538 56 22 0.0 0.0 0.00 0.00 1.26 80 1009.7
20260508030034 57 22 0.0 0.0 0.00 0.00 1.26 78 1009.4
20260508024532 58 21 0.0 0.0 0.00 0.00 1.26 76 1009.4
20260508023029 59 14 0.0 0.0 0.00 0.00 1.26 75 1009.1
20260508021528 59 348 1.0 0.0 0.00 0.00 1.26 75 1008.8
20260508020035 59 317 0.0 0.0 0.00 0.00 1.26 75 1008.7
20260508014524 60 296 1.0 0.0 0.00 0.00 1.26 74 1008.3
20260508013021 61 281 2.0 0.0 0.00 0.00 1.26 73 1008.0
20260508011521 62 288 1.0 0.0 0.00 0.00 1.26 74 1007.7
20260508010018 62 5 1.0 0.0 0.00 0.00 1.26 73 1007.4
20260508004515 63 278 2.0 0.0 0.00 0.00 1.26 71 1007.1
20260508003013 64 280 2.0 0.0 0.00 0.00 1.26 70 1006.8